DW8501 Madrid ES current weather conditions

sailwx.info

Wind from 096 at 3 knots gusting 6

Air temperature 26.1° C
Dewpoint 13.6° C

Last reported at 2014-Aug-27 08:55 UTC.
Time now 2014-Aug-27 09:08 UTC

Location: N 40°27' W 003°35'.
View on Google Maps.

See reports from other nearby stations

  
Tides and Currents Weather Stations Pressure Air Temp Water Temp Dewpoint Dewpoint Depression Visibility Wind Speed Wind Dir Waves Ship Positions
date/time (UTC)wind fromknots sea level pressurealtimeterstation pressurevisibilityair tempwater tempwave heightnotes
2014-Aug-27 08:55 096 3 gusting 6 26.1
2014-Aug-27 08:50 138 2 gusting 6 26.7
2014-Aug-27 08:45 046 1 gusting 6 26.1
2014-Aug-27 08:40 055 3 gusting 6 25.6
2014-Aug-27 08:35 075 5 gusting 6 25.6
2014-Aug-27 08:30 068 2 gusting 6 25.6
2014-Aug-27 08:25 071 3 gusting 6 25.0
2014-Aug-27 08:20 094 3 gusting 6 25.0
2014-Aug-27 08:15 141 1 gusting 5 25.0
2014-Aug-27 08:10 113 1 gusting 5 25.0
2014-Aug-27 08:05 015 0 gusting 6 25.0
2014-Aug-27 08:00 064 0 gusting 6 25.0
2014-Aug-27 07:55 087 3 gusting 4 25.0
2014-Aug-27 07:50 108 3 gusting 4 24.4
2014-Aug-27 07:45 104 3 gusting 6 24.4
2014-Aug-27 07:40 099 1 gusting 6 23.9
2014-Aug-27 07:35 089 4 gusting 6 23.9
2014-Aug-27 07:30 080 1 gusting 6 23.9
2014-Aug-27 07:25 083 4 gusting 6 23.3
2014-Aug-27 07:20 076 4 gusting 6 23.3
2014-Aug-27 07:15 079 4 gusting 7 23.3
2014-Aug-27 07:10 081 6 gusting 9 23.3
2014-Aug-27 07:05 066 5 gusting 9 23.3
2014-Aug-27 07:00 055 7 gusting 9 23.3
2014-Aug-27 06:55 050 4 gusting 8 23.3
2014-Aug-27 06:50 046 3 gusting 6 23.3
2014-Aug-27 06:45 046 3 gusting 5 23.3
2014-Aug-27 06:40 047 2 gusting 5 23.3
2014-Aug-27 06:35 035 3 gusting 5 23.3
2014-Aug-27 06:30 026 2 gusting 3 23.3
2014-Aug-27 06:25 028 2 gusting 5 22.8
2014-Aug-27 06:20 019 1 gusting 5 22.8
2014-Aug-27 06:15 020 2 gusting 3 22.2
2014-Aug-27 06:10 046 1 gusting 2 22.2
2014-Aug-27 06:05 090 0 gusting 1 21.7
2014-Aug-27 06:00 090 0 gusting 2 21.7
2014-Aug-27 05:55 091 1 gusting 3 21.7
2014-Aug-27 05:50 067 1 gusting 4 21.1
2014-Aug-27 05:45 060 1 gusting 4 20.6
2014-Aug-27 05:40 093 1 gusting 2 20.6
2014-Aug-27 05:35 096 1 gusting 3 20.6
2014-Aug-27 05:30 082 1 gusting 3 20.6
2014-Aug-27 05:25 084 1 gusting 4 20.6
2014-Aug-27 05:20 084 1 gusting 4 20.6
2014-Aug-27 05:15 072 2 gusting 3 20.6
2014-Aug-27 05:10 075 1 gusting 3 20.6
2014-Aug-27 05:05 082 2 gusting 3 20.6
2014-Aug-27 05:00 079 1 gusting 3 20.6
2014-Aug-27 04:55 071 2 gusting 3 20.6
2014-Aug-27 04:50 064 1 gusting 3 20.6
2014-Aug-27 04:45 076 2 gusting 3 20.6
2014-Aug-27 04:40 090 1 gusting 3 20.6
2014-Aug-27 04:35 093 2 gusting 3 20.6
2014-Aug-27 04:30 092 1 gusting 2 20.6
2014-Aug-27 04:25 090 1 gusting 1 20.6
2014-Aug-27 04:20 20.6
2014-Aug-27 04:15 21.1
2014-Aug-27 04:10 122 1 gusting 2 21.1
2014-Aug-27 04:05 130 1 gusting 2 21.1
2014-Aug-27 04:00 139 1 gusting 2 21.1
2014-Aug-27 03:55 136 1 gusting 2 21.1
2014-Aug-27 03:50 21.1
2014-Aug-27 03:45 142 1 gusting 2 21.1
2014-Aug-27 03:40 136 0 gusting 2 21.1
2014-Aug-27 03:35 114 0 gusting 2 21.1
2014-Aug-27 03:30 21.1
2014-Aug-27 03:25 069 0 gusting 3 21.1
2014-Aug-27 03:20 090 0 gusting 3 21.7
2014-Aug-27 03:15 108 1 gusting 3 21.7
2014-Aug-27 03:10 116 2 gusting 3 21.7
2014-Aug-27 03:05 105 1 gusting 3 21.7
2014-Aug-27 03:00 090 2 gusting 3 21.7
2014-Aug-27 02:55 090 1 gusting 3 21.7
2014-Aug-27 02:50 096 1 gusting 3 21.7
2014-Aug-27 02:45 097 1 gusting 3 21.7
2014-Aug-27 02:40 092 0 gusting 3 21.7
2014-Aug-27 02:35 095 0 gusting 2 21.7
2014-Aug-27 02:30 103 1 gusting 3 22.2
2014-Aug-27 02:25 108 1 gusting 3 22.2
2014-Aug-27 02:20 107 1 gusting 3 22.2
2014-Aug-27 02:15 112 1 gusting 3 22.2
2014-Aug-27 02:10 107 1 gusting 3 22.2
2014-Aug-27 02:05 22.8
2014-Aug-27 02:00 22.8
2014-Aug-27 01:55 116 1 gusting 2 22.8
2014-Aug-27 01:50 22.8
2014-Aug-27 01:45 092 1 gusting 3 22.8
2014-Aug-27 01:40 090 1 gusting 3 22.8
2014-Aug-27 01:35 071 1 gusting 3 22.8
2014-Aug-27 01:30 116 0 gusting 2 23.3
2014-Aug-27 01:25 23.3
2014-Aug-27 01:20 093 1 gusting 3 23.3
2014-Aug-27 01:15 259 2 gusting 3 23.3
2014-Aug-27 01:10 246 1 gusting 2 23.9
2014-Aug-27 01:05 246 1 gusting 2 23.9
2014-Aug-27 01:00 257 0 gusting 3 23.9
2014-Aug-27 00:55 266 1 gusting 3 23.9
2014-Aug-27 00:50 274 2 gusting 3 23.9
2014-Aug-27 00:45 270 0 gusting 1 23.9
2014-Aug-27 00:40 094 0 gusting 1 23.9
2014-Aug-27 00:35 24.4
2014-Aug-27 00:30 088 0 gusting 3 24.4
2014-Aug-27 00:25 075 1 gusting 5 24.4
2014-Aug-27 00:20 065 3 gusting 6 24.4
2014-Aug-27 00:15 020 3 gusting 6 24.4
2014-Aug-27 00:10 295 1 gusting 3 24.4
2014-Aug-27 00:05 310 2 gusting 6 24.4
2014-Aug-27 00:00 312 2 gusting 6 24.4
2014-Aug-26 23:55 295 1 gusting 7 25.0
2014-Aug-26 23:50 297 1 gusting 7 25.0
2014-Aug-26 23:45 296 3 gusting 6 25.0
2014-Aug-26 23:40 298 4 gusting 6 25.0
2014-Aug-26 23:35 293 5 gusting 9 25.0
2014-Aug-26 23:30 291 4 gusting 9 25.0
2014-Aug-26 23:25 305 3 gusting 11 25.0
2014-Aug-26 23:20 312 5 gusting 13 25.0
2014-Aug-26 23:15 305 6 gusting 13 25.0
2014-Aug-26 23:10 296 6 gusting 13 25.6
2014-Aug-26 23:05 293 6 gusting 14 25.6
2014-Aug-26 23:00 296 7 gusting 14 25.6
2014-Aug-26 22:55 304 9 gusting 14 25.6
2014-Aug-26 22:50 302 6 gusting 16 25.6
2014-Aug-26 22:45 300 6 gusting 16 26.1
2014-Aug-26 22:40 310 3 gusting 12 26.1
2014-Aug-26 22:35 317 6 gusting 14 26.1
2014-Aug-26 22:30 315 4 gusting 14 25.6
2014-Aug-26 22:25 302 6 gusting 14 26.1
2014-Aug-26 22:20 307 4 gusting 14 26.1
2014-Aug-26 22:15 334 10 gusting 14 26.1
2014-Aug-26 22:10 342 8 gusting 13 26.1
2014-Aug-26 22:05 348 3 gusting 14 26.7
2014-Aug-26 22:00 331 3 gusting 14 26.7
2014-Aug-26 21:55 301 5 gusting 14 26.7
2014-Aug-26 21:50 306 3 gusting 14 26.7
2014-Aug-26 21:45 316 6 gusting 14 26.7
2014-Aug-26 21:40 307 5 gusting 14 26.7
2014-Aug-26 21:35 294 6 gusting 13 27.2
2014-Aug-26 21:30 308 3 gusting 13 26.7
2014-Aug-26 21:25 333 6 gusting 13 27.2
2014-Aug-26 21:20 322 6 gusting 14 27.2
2014-Aug-26 21:15 304 8 gusting 14 27.2
2014-Aug-26 21:10 314 6 gusting 13 27.2
2014-Aug-26 21:05 332 6 gusting 13 27.8
2014-Aug-26 21:00 338 10 gusting 13 27.8
2014-Aug-26 20:55 337 2 gusting 13 27.8
2014-Aug-26 20:50 341 6 gusting 10 27.8
2014-Aug-26 20:45 339 4 gusting 12 27.8
2014-Aug-26 20:40 342 8 gusting 17 27.8
2014-Aug-26 20:35 356 3 gusting 17 27.8
2014-Aug-26 20:30 003 9 gusting 15 28.3
2014-Aug-26 20:25 004 8 gusting 13 28.3
2014-Aug-26 20:20 335 8 gusting 14 28.3
2014-Aug-26 20:15 306 6 gusting 14 28.3
2014-Aug-26 20:10 300 6 gusting 11 28.3
2014-Aug-26 20:05 320 6 gusting 13 28.3
2014-Aug-26 20:00 350 6 gusting 15 28.3
2014-Aug-26 19:55 355 6 gusting 15 28.3
2014-Aug-26 19:50 009 6 gusting 9 28.9
2014-Aug-26 19:45 359 6 gusting 14 28.9
2014-Aug-26 19:40 352 6 gusting 14 28.9
2014-Aug-26 19:35 351 6 gusting 13 28.9
2014-Aug-26 19:30 350 8 gusting 13 28.9
2014-Aug-26 19:25 339 9 gusting 18 28.9
2014-Aug-26 19:20 333 6 gusting 19 28.9
2014-Aug-26 19:15 337 13 gusting 19 29.4
2014-Aug-26 19:10 334 13 gusting 19 29.4
2014-Aug-26 19:05 340 6 gusting 13 29.4
2014-Aug-26 19:00 340 10 gusting 13 29.4
2014-Aug-26 18:55 333 7 gusting 13 29.4
2014-Aug-26 18:50 338 5 gusting 18 30.0
2014-Aug-26 18:45 335 6 gusting 18 30.0
2014-Aug-26 18:40 339 11 gusting 17 30.0
2014-Aug-26 18:35 336 7 gusting 16 30.6
2014-Aug-26 18:30 328 11 gusting 14 30.6
2014-Aug-26 18:25 332 4 gusting 21 30.6
2014-Aug-26 18:20 330 12 gusting 21 31.1
2014-Aug-26 18:15 323 13 gusting 21 31.1
2014-Aug-26 18:10 317 6 gusting 16 31.7
2014-Aug-26 18:05 320 12 gusting 16 31.7
2014-Aug-26 18:00 343 12 gusting 16 31.7
2014-Aug-26 17:55 350 8 gusting 13 32.2
2014-Aug-26 17:50 333 3 gusting 17 32.2
2014-Aug-26 17:45 325 3 gusting 17 31.7
2014-Aug-26 17:40 329 9 gusting 17 32.2
2014-Aug-26 17:35 340 10 gusting 17 32.2
2014-Aug-26 17:30 337 10 gusting 14 32.2
2014-Aug-26 17:25 343 5 gusting 16 32.8
2014-Aug-26 17:20 340 9 gusting 16 32.8
2014-Aug-26 17:15 331 4 gusting 16 33.3
2014-Aug-26 17:10 332 5 gusting 16 32.8
2014-Aug-26 17:05 344 9 gusting 16 33.3
2014-Aug-26 17:00 345 6 gusting 13 33.3
2014-Aug-26 16:55 332 6 gusting 14 33.3
2014-Aug-26 16:50 346 6 gusting 14 33.3
2014-Aug-26 16:45 351 6 gusting 15 32.8
2014-Aug-26 16:40 341 6 gusting 15 32.8
2014-Aug-26 16:35 330 6 gusting 14 33.3
2014-Aug-26 16:30 334 8 gusting 14 33.3
2014-Aug-26 16:25 331 6 gusting 15 32.8
2014-Aug-26 16:20 332 10 gusting 17 32.8
2014-Aug-26 16:15 329 6 gusting 17 32.8
2014-Aug-26 16:10 314 6 gusting 13 32.8
2014-Aug-26 16:05 320 2 gusting 11 33.3
2014-Aug-26 16:00 321 2 gusting 15 33.3
2014-Aug-26 15:55 339 7 gusting 17 32.8
2014-Aug-26 15:50 354 7 gusting 21 32.8
2014-Aug-26 15:45 347 14 gusting 21 33.3
2014-Aug-26 15:40 324 13 gusting 18 33.9
2014-Aug-26 15:35 309 3 gusting 18 33.9
2014-Aug-26 15:30 307 12 gusting 15 32.8
2014-Aug-26 15:25 305 6 gusting 16 33.3
2014-Aug-26 15:20 321 7 gusting 17 32.8
2014-Aug-26 15:15 323 8 gusting 18 32.8
2014-Aug-26 15:10 312 6 gusting 18 33.3
2014-Aug-26 15:05 307 8 gusting 18 33.3
2014-Aug-26 15:00 319 8 gusting 15 33.3
2014-Aug-26 14:55 337 9 gusting 13 33.3
2014-Aug-26 14:50 322 6 gusting 12 33.3
2014-Aug-26 14:45 313 5 gusting 17 33.3
2014-Aug-26 14:40 318 4 gusting 17 33.3
2014-Aug-26 14:35 314 11 gusting 16 33.3
2014-Aug-26 14:30 298 5 gusting 14 32.2
2014-Aug-26 14:25 299 6 gusting 14 32.8
2014-Aug-26 14:20 314 6 gusting 17 33.9
2014-Aug-26 14:15 309 3 gusting 19 32.8
2014-Aug-26 14:10 312 9 gusting 19 32.2
2014-Aug-26 14:05 327 6 gusting 11 32.2
2014-Aug-26 14:00 322 6 gusting 15 32.2
2014-Aug-26 13:55 317 3 gusting 21 32.2
2014-Aug-26 13:50 340 9 gusting 21 32.2
2014-Aug-26 13:45 324 8 gusting 17 32.2
2014-Aug-26 13:40 300 5 gusting 17 32.2
2014-Aug-26 13:35 300 10 gusting 14 31.7
2014-Aug-26 13:30 299 8 gusting 15 31.7
2014-Aug-26 13:25 286 12 gusting 15 32.2
2014-Aug-26 13:20 297 11 gusting 14 32.8
2014-Aug-26 13:15 331 4 gusting 9 32.8
2014-Aug-26 13:10 306 4 gusting 15 31.7
2014-Aug-26 13:05 330 5 gusting 15 31.1
2014-Aug-26 13:00 340 6 gusting 14 31.1
2014-Aug-26 12:55 313 11 gusting 18 31.7
2014-Aug-26 12:50 325 8 gusting 18 31.1
2014-Aug-26 12:45 328 8 gusting 16 31.7
2014-Aug-26 12:40 280 6 gusting 16 31.7
2014-Aug-26 12:35 286 6 gusting 14 31.1
2014-Aug-26 12:30 321 12 gusting 14 31.1
2014-Aug-26 12:25 322 8 gusting 14 30.6
2014-Aug-26 12:20 300 5 gusting 14 30.6
2014-Aug-26 12:15 291 6 gusting 18 31.1
2014-Aug-26 12:10 276 8 gusting 18 30.6
2014-Aug-26 12:05 261 7 gusting 19 30.6
2014-Aug-26 12:00 265 7 gusting 21 30.6
2014-Aug-26 11:55 287 14 gusting 21 30.6
2014-Aug-26 11:50 295 17 gusting 23 30.6
2014-Aug-26 11:45 296 9 gusting 23 30.6
2014-Aug-26 11:40 317 18 gusting 23 30.6
2014-Aug-26 11:35 355 12 gusting 17 31.1
2014-Aug-26 11:30 354 7 gusting 12 31.7
2014-Aug-26 11:25 325 3 gusting 6 31.7
2014-Aug-26 11:20 233 1 gusting 11 30.6
2014-Aug-26 11:15 257 1 gusting 11 30.6
2014-Aug-26 11:10 323 4 gusting 9 30.6
2014-Aug-26 11:05 340 5 gusting 9 30.6
2014-Aug-26 11:00 323 3 gusting 17 30.6
2014-Aug-26 10:55 318 5 gusting 17 30.0
2014-Aug-26 10:50 302 9 gusting 13 30.0
2014-Aug-26 10:45 286 3 gusting 17 30.0
2014-Aug-26 10:40 291 8 gusting 18 28.9
2014-Aug-26 10:35 280 9 gusting 19 28.9
2014-Aug-26 10:30 278 14 gusting 19 29.4
2014-Aug-26 10:25 279 4 gusting 14 28.9
2014-Aug-26 10:20 266 4 gusting 13 28.9
2014-Aug-26 10:15 292 8 gusting 13 29.4
2014-Aug-26 10:10 343 5 gusting 9 29.4
2014-Aug-26 10:05 002 3 gusting 6 29.4
2014-Aug-26 10:00 317 3 gusting 10 29.4
2014-Aug-26 09:55 277 4 gusting 10 29.4
2014-Aug-26 09:50 090 5 gusting 10 29.4
2014-Aug-26 09:45 074 5 gusting 8 28.9
2014-Aug-26 09:40 078 6 gusting 8 28.9
2014-Aug-26 09:35 096 2 gusting 6 29.4
2014-Aug-26 09:30 092 3 gusting 5 28.9
2014-Aug-26 09:25 098 1 gusting 6 27.8
2014-Aug-26 09:20 093 3 gusting 6 27.2
2014-Aug-26 09:15 091 6 gusting 6 27.2
2014-Aug-26 09:10 106 5 gusting 6 27.2
2014-Aug-26 09:05 111 3 gusting 5 27.2
2014-Aug-26 09:00 090 1 gusting 4 27.2
2014-Aug-26 08:55 082 1 gusting 4 26.7
2014-Aug-26 08:50 074 2 gusting 6 26.1
2014-Aug-26 08:45 059 3 gusting 6 25.6
2014-Aug-26 08:40 055 3 gusting 6 25.6
2014-Aug-26 08:35 047 3 gusting 5 25.6
2014-Aug-26 08:30 038 3 gusting 4 25.6
2014-Aug-26 08:25 044 3 gusting 4 25.6
2014-Aug-26 08:20 050 1 gusting 6 25.0
2014-Aug-26 08:15 050 3 gusting 6 24.4
2014-Aug-26 08:10 070 3 gusting 5 24.4
2014-Aug-26 08:05 089 3 gusting 4 24.4
2014-Aug-26 08:00 082 3 gusting 4 24.4
2014-Aug-26 07:55 085 3 gusting 3 24.4
2014-Aug-26 07:50 066 1 gusting 2 24.4
2014-Aug-26 07:45 054 1 gusting 3 23.9
2014-Aug-26 07:40 073 1 gusting 5 22.8
2014-Aug-26 07:35 071 2 gusting 6 22.2
2014-Aug-26 07:30 080 3 gusting 6 21.7
2014-Aug-26 07:25 089 4 gusting 8 21.7
2014-Aug-26 07:20 078 6 gusting 8 21.7
2014-Aug-26 07:15 061 5 gusting 8 22.2
2014-Aug-26 07:10 053 4 gusting 8 22.8
2014-Aug-26 07:05 062 4 gusting 5 23.9
2014-Aug-26 07:00 286 3 gusting 6 24.4
2014-Aug-26 06:55 265 1 gusting 6 24.4
2014-Aug-26 06:50 284 3 gusting 5 25.0
2014-Aug-26 06:45 290 1 gusting 3 25.0
2014-Aug-26 06:40 24.4
2014-Aug-26 06:35 23.3
2014-Aug-26 06:30 029 0 gusting 1 23.3
2014-Aug-26 06:25 22.2
2014-Aug-26 06:20 21.7
2014-Aug-26 06:15 082 1 gusting 3 21.1
2014-Aug-26 06:10 082 3 gusting 3 21.7
2014-Aug-26 06:05 20.6
2014-Aug-26 06:00 20.6
2014-Aug-26 05:55 082 1 gusting 3 20.0
2014-Aug-26 05:50 051 1 gusting 3 20.0
2014-Aug-26 05:45 313 2 gusting 3 20.0
2014-Aug-26 05:40 254 0 gusting 3 20.0
2014-Aug-26 05:35 213 1 gusting 3 19.4
2014-Aug-26 05:30 201 2 gusting 3 19.4
2014-Aug-26 05:25 205 0 gusting 1 19.4
2014-Aug-26 05:20 19.4
2014-Aug-26 05:15 19.4
2014-Aug-26 05:10 19.4
2014-Aug-26 05:05 19.4
2014-Aug-26 05:00 102 0 gusting 3 20.0
2014-Aug-26 04:55 088 1 gusting 3 20.0
2014-Aug-26 04:50 136 0 gusting 1 20.0
2014-Aug-26 04:45 213 0 gusting 1 20.0
2014-Aug-26 04:40 20.0
2014-Aug-26 04:35 096 1 gusting 4 20.0
2014-Aug-26 04:30 100 3 gusting 4 20.0
2014-Aug-26 04:25 253 0 gusting 3 20.6
2014-Aug-26 04:20 256 1 gusting 3 20.6
2014-Aug-26 04:15 241 1 gusting 3 20.6
2014-Aug-26 04:10 225 1 gusting 3 20.6
2014-Aug-26 04:05 240 1 gusting 5 20.6
2014-Aug-26 04:00 229 1 gusting 6 20.6
2014-Aug-26 03:55 207 4 gusting 6 20.6
2014-Aug-26 03:50 194 2 gusting 5 20.6
2014-Aug-26 03:45 198 1 gusting 5 20.6
2014-Aug-26 03:40 207 1 gusting 3 20.6
2014-Aug-26 03:35 199 1 gusting 3 20.6
2014-Aug-26 03:30 20.6
2014-Aug-26 03:25 191 1 gusting 2 20.6
2014-Aug-26 03:20 236 1 gusting 2 21.1
2014-Aug-26 03:15 268 0 gusting 2 21.1
2014-Aug-26 03:10 21.1
2014-Aug-26 03:05 21.1
2014-Aug-26 03:00 222 1 gusting 2 21.1
2014-Aug-26 02:55 21.7
2014-Aug-26 02:50 243 0 gusting 1 21.7
2014-Aug-26 02:45 242 1 gusting 1 21.7
2014-Aug-26 02:40 21.7
2014-Aug-26 02:35 108 0 gusting 3 22.2
2014-Aug-26 02:30 092 0 gusting 3 22.2
2014-Aug-26 02:25 095 1 gusting 3 22.2
2014-Aug-26 02:20 099 2 gusting 3 22.8
2014-Aug-26 02:15 095 2 gusting 3 22.8
2014-Aug-26 02:10 090 3 gusting 3 22.8
2014-Aug-26 02:05 090 1 gusting 3 22.8
2014-Aug-26 02:00 090 1 gusting 3 22.8
2014-Aug-26 01:55 23.3
2014-Aug-26 01:50 23.3
2014-Aug-26 01:45 163 0 gusting 1 23.9
2014-Aug-26 01:40 24.4
2014-Aug-26 01:35 302 1 gusting 4 24.4
2014-Aug-26 01:30 308 2 gusting 5 24.4
2014-Aug-26 01:25 066 1 gusting 5 24.4
2014-Aug-26 01:20 067 2 gusting 5 24.4
2014-Aug-26 01:15 342 3 gusting 4 25.0
2014-Aug-26 01:10 307 1 gusting 4 25.0
2014-Aug-26 01:05 304 2 gusting 6 25.6
2014-Aug-26 01:00 295 3 gusting 6 25.0
2014-Aug-26 00:55 292 4 gusting 6 25.6
2014-Aug-26 00:50 292 3 gusting 6 25.0
2014-Aug-26 00:45 293 3 gusting 6 25.6
2014-Aug-26 00:40 277 3 gusting 7 25.6
2014-Aug-26 00:35 269 5 gusting 9 25.6
2014-Aug-26 00:30 275 6 gusting 9 25.6
2014-Aug-26 00:25 295 6 gusting 8 26.1
2014-Aug-26 00:20 310 6 gusting 9 26.1
2014-Aug-26 00:15 292 4 gusting 9 26.7
2014-Aug-26 00:10 275 6 gusting 8 26.1
2014-Aug-26 00:05 269 6 gusting 9 26.1
2014-Aug-26 00:00 296 6 gusting 11 26.1
2014-Aug-25 23:55 313 6 gusting 12 26.7
2014-Aug-25 23:50 292 8 gusting 12 26.7
2014-Aug-25 23:45 285 3 gusting 8 26.7
2014-Aug-25 23:40 292 5 gusting 8 26.7
2014-Aug-25 23:35 288 2 gusting 6 26.1
2014-Aug-25 23:30 292 4 gusting 6 26.7
2014-Aug-25 23:25 301 3 gusting 8 26.7
2014-Aug-25 23:20 295 2 gusting 9 26.7
2014-Aug-25 23:15 284 6 gusting 9 26.7
2014-Aug-25 23:10 273 6 gusting 9 26.7
2014-Aug-25 23:05 281 3 gusting 11 27.2
2014-Aug-25 23:00 289 7 gusting 11 27.2
2014-Aug-25 22:55 277 7 gusting 11 27.2
2014-Aug-25 22:50 261 5 gusting 10 27.2
2014-Aug-25 22:45 269 6 gusting 10 27.2
2014-Aug-25 22:40 273 6 gusting 12 27.2
2014-Aug-25 22:35 273 8 gusting 12 27.8
2014-Aug-25 22:30 280 9 gusting 12 27.8
2014-Aug-25 22:25 283 6 gusting 9 27.8
2014-Aug-25 22:20 290 6 gusting 9 27.8
2014-Aug-25 22:15 285 6 gusting 9 27.8
2014-Aug-25 22:10 274 6 gusting 8 27.8
2014-Aug-25 22:05 282 7 gusting 12 27.8
2014-Aug-25 22:00 297 7 gusting 12 27.8
2014-Aug-25 21:55 279 7 gusting 12 27.8
2014-Aug-25 21:50 269 7 gusting 10 27.8
2014-Aug-25 21:45 282 6 gusting 9 27.8
2014-Aug-25 21:40 274 4 gusting 12 27.8
2014-Aug-25 21:35 272 6 gusting 12 28.3
2014-Aug-25 21:30 290 6 gusting 9 28.3
2014-Aug-25 21:25 296 6 gusting 9 28.9
2014-Aug-25 21:20 291 4 gusting 12 28.3
2014-Aug-25 21:15 284 6 gusting 13 28.9
2014-Aug-25 21:10 293 7 gusting 13 28.9
2014-Aug-25 21:05 292 7 gusting 13 28.9
2014-Aug-25 21:00 275 6 gusting 14 28.9
2014-Aug-25 20:55 280 8 gusting 14 28.9
2014-Aug-25 20:50 272 9 gusting 13 29.4
2014-Aug-25 20:45 284 9 gusting 14 29.4
2014-Aug-25 20:40 297 9 gusting 14 29.4
2014-Aug-25 20:35 294 10 gusting 14 29.4
2014-Aug-25 20:30 292 8 gusting 15 29.4
2014-Aug-25 20:25 283 9 gusting 15 29.4
2014-Aug-25 20:20 282 8 gusting 13 29.4
2014-Aug-25 20:15 293 10 gusting 14 30.0
2014-Aug-25 20:10 306 8 gusting 14 29.4
2014-Aug-25 20:05 296 11 gusting 14 30.0
2014-Aug-25 20:00 269 11 gusting 14 30.0
2014-Aug-25 19:55 276 9 gusting 16 30.0
2014-Aug-25 19:50 273 12 gusting 16 30.0
2014-Aug-25 19:45 257 7 gusting 11 30.0
2014-Aug-25 19:40 270 5 gusting 13 30.6
2014-Aug-25 19:35 289 5 gusting 13 30.6
2014-Aug-25 19:30 290 5 gusting 14 30.6
2014-Aug-25 19:25 287 7 gusting 16 30.6
2014-Aug-25 19:20 289 9 gusting 16 30.6
2014-Aug-25 19:15 288 7 gusting 13 30.6
2014-Aug-25 19:10 290 6 gusting 14 31.1
2014-Aug-25 19:05 288 9 gusting 14 31.1
2014-Aug-25 19:00 273 7 gusting 14 31.1
2014-Aug-25 18:55 286 9 gusting 16 31.1
2014-Aug-25 18:50 313 6 gusting 16 31.1
2014-Aug-25 18:45 299 5 gusting 18 31.7
2014-Aug-25 18:40 277 13 gusting 18 31.7
2014-Aug-25 18:35 274 13 gusting 19 31.7
2014-Aug-25 18:30 268 13 gusting 19 31.7
2014-Aug-25 18:25 263 8 gusting 17 32.2
2014-Aug-25 18:20 282 14 gusting 18 32.2
2014-Aug-25 18:15 301 10 gusting 18 32.2
2014-Aug-25 18:10 309 11 gusting 14 32.2
2014-Aug-25 18:05 299 12 gusting 17 32.2
2014-Aug-25 18:00 278 12 gusting 18 32.2
2014-Aug-25 17:55 285 6 gusting 18 32.8
2014-Aug-25 17:50 278 6 gusting 16 32.8
2014-Aug-25 17:45 286 13 gusting 14 32.8
2014-Aug-25 17:40 303 9 gusting 13 32.8
2014-Aug-25 17:35 295 11 gusting 19 32.8
2014-Aug-25 17:30 278 8 gusting 19 32.8
2014-Aug-25 17:25 272 10 gusting 19 32.8
2014-Aug-25 17:20 273 9 gusting 17 33.3
2014-Aug-25 17:15 261 6 gusting 19 32.8
2014-Aug-25 17:10 269 11 gusting 19 32.8
2014-Aug-25 17:05 289 12 gusting 19 32.8
2014-Aug-25 17:00 284 10 gusting 19 32.8
2014-Aug-25 16:55 285 15 gusting 19 33.3
2014-Aug-25 16:50 304 7 gusting 18 33.3
2014-Aug-25 16:45 307 7 gusting 19 33.3
2014-Aug-25 16:40 292 9 gusting 19 32.8
2014-Aug-25 16:35 276 13 gusting 19 33.3
2014-Aug-25 16:30 282 8 gusting 18 33.3
2014-Aug-25 16:25 296 10 gusting 18 32.8
2014-Aug-25 16:20 286 10 gusting 17 32.8
2014-Aug-25 16:15 292 9 gusting 19 32.8
2014-Aug-25 16:10 311 13 gusting 19 33.3
2014-Aug-25 16:05 311 13 gusting 19 32.8
2014-Aug-25 16:00 300 13 gusting 21 32.8
2014-Aug-25 15:55 289 12 gusting 21 32.8
2014-Aug-25 15:50 270 13 gusting 19 32.8
2014-Aug-25 15:45 270 12 gusting 22 33.3
2014-Aug-25 15:40 282 11 gusting 22 33.3
2014-Aug-25 15:35 283 18 gusting 22 32.8
2014-Aug-25 15:30 286 8 gusting 18 32.8
2014-Aug-25 15:25 302 13 gusting 21 32.8
2014-Aug-25 15:20 293 6 gusting 21 32.2
2014-Aug-25 15:15 292 13 gusting 21 32.8
2014-Aug-25 15:10 291 8 gusting 21 32.8
2014-Aug-25 15:05 270 13 gusting 19 32.8
2014-Aug-25 15:00 254 13 gusting 21 32.8
2014-Aug-25 14:55 276 13 gusting 21 32.8
2014-Aug-25 14:50 307 13 gusting 18 32.2
2014-Aug-25 14:45 319 10 gusting 18 32.8
2014-Aug-25 14:40 293 9 gusting 18 32.2
2014-Aug-25 14:35 256 8 gusting 19 32.2
2014-Aug-25 14:30 272 17 gusting 19 32.2
2014-Aug-25 14:25 301 6 gusting 17 32.2
2014-Aug-25 14:20 293 11 gusting 18 31.7
2014-Aug-25 14:15 296 11 gusting 18 32.2
2014-Aug-25 14:10 302 12 gusting 17 31.7
2014-Aug-25 14:05 298 7 gusting 23 31.7
2014-Aug-25 14:00 303 7 gusting 23 31.7
2014-Aug-25 13:55 295 11 gusting 22 31.7
2014-Aug-25 13:50 283 13 gusting 22 31.7
2014-Aug-25 13:45 286 13 gusting 19 31.7
2014-Aug-25 13:40 301 18 gusting 19 31.1
2014-Aug-25 13:35 298 16 gusting 20 31.7
2014-Aug-25 13:30 276 18 gusting 20 31.7
2014-Aug-25 13:25 258 18 gusting 19 31.7
2014-Aug-25 13:20 268 13 gusting 18 31.7
2014-Aug-25 13:15 284 9 gusting 16 31.7
2014-Aug-25 13:10 280 9 gusting 16 31.1
2014-Aug-25 13:05 246 10 gusting 18 31.1
2014-Aug-25 13:00 251 10 gusting 18 31.1
2014-Aug-25 12:55 292 13 gusting 19 31.1
2014-Aug-25 12:50 271 13 gusting 19 31.1
2014-Aug-25 12:45 263 13 gusting 19 31.1
2014-Aug-25 12:40 276 12 gusting 19 31.1
2014-Aug-25 12:35 289 13 gusting 19 31.1
2014-Aug-25 12:30 284 9 gusting 18 31.1
2014-Aug-25 12:25 253 13 gusting 18 30.6
2014-Aug-25 12:20 250 13 gusting 20 30.6
2014-Aug-25 12:15 259 9 gusting 20 30.6
2014-Aug-25 12:10 237 14 gusting 18 30.6
2014-Aug-25 12:05 223 11 gusting 19 30.0
2014-Aug-25 12:00 223 11 gusting 19 30.0
2014-Aug-25 11:55 232 6 gusting 16 30.0
2014-Aug-25 11:50 246 6 gusting 15 30.6
2014-Aug-25 11:45 258 6 gusting 15 30.6
2014-Aug-25 11:40 253 3 gusting 16 30.0
2014-Aug-25 11:35 241 9 gusting 16 30.0
2014-Aug-25 11:30 268 9 gusting 13 29.4
2014-Aug-25 11:25 264 12 gusting 18 29.4
2014-Aug-25 11:20 222 10 gusting 18 29.4
2014-Aug-25 11:15 220 3 gusting 14 29.4
2014-Aug-25 11:10 231 8 gusting 14 28.9
2014-Aug-25 11:05 227 7 gusting 13 29.4
2014-Aug-25 11:00 236 7 gusting 13 28.9
2014-Aug-25 10:55 244 3 gusting 9 28.9
2014-Aug-25 10:50 208 5 gusting 9 29.4
2014-Aug-25 10:45 206 5 gusting 9 30.0
2014-Aug-25 10:40 252 6 gusting 9 29.4
2014-Aug-25 10:35 251 2 gusting 9 28.9
2014-Aug-25 10:30 235 4 gusting 6 28.3
2014-Aug-25 10:25 222 3 gusting 6 28.9
2014-Aug-25 10:20 248 6 gusting 8 28.3
2014-Aug-25 10:15 271 1 gusting 8 27.8
2014-Aug-25 10:10 306 2 gusting 5 27.2
2014-Aug-25 10:05 299 3 gusting 7 27.8
2014-Aug-25 10:00 257 3 gusting 7 27.8
2014-Aug-25 09:55 088 1 gusting 6 27.8
2014-Aug-25 09:50 074 1 gusting 6 26.7
2014-Aug-25 09:45 074 3 gusting 6 26.1
2014-Aug-25 09:40 080 3 gusting 6 26.1
2014-Aug-25 09:35 081 1 gusting 6 25.6
2014-Aug-25 09:30 081 3 gusting 6 25.6
2014-Aug-25 09:25 080 2 gusting 6 25.6
2014-Aug-25 09:20 079 3 gusting 5 25.6
2014-Aug-25 09:15 094 3 gusting 5 26.1
2014-Aug-25 09:10 091 1 gusting 4 26.1
2014-Aug-25 09:05 152 1 gusting 4 26.7
2014-Aug-25 09:00 149 1 gusting 3 26.1